www.pogodaiklimat.ru

Погода и климат >> Архив погоды >> Россия >> Якутия >> Охотский Перевоз


ПОГОДА в Охотском Перевозе

  • Прогноз погоды в Охотском Перевозе
  • Монитор погоды в Охотском Перевозе

АРХИВ ПОГОДЫ в Охотском Перевозе

Время (UTC), дата Ветер
(напр.,м/с)
 
Видим.   Явления Облачность Т
(С)
Тd
(С)
f
(%)
Тe
(С)
Тes
(С)
Комфортность P
(гПа)
Po
(гПа)
Тmin
(С)
Tmax
(С)
R
(мм)
R24
(мм)
S
(см)
18 18.05 Ю 1 10 км 6/6 1000 м
[Sc]
+8.5 +4.4 75 +8 +8 1001.1 984.1
21 18.05 СВ 3 20 км 8/3 1000 м
[Sc Cc]
+5.5 0.0 68 +2 +4 1001.0 983.9 +4.8
00 19.05 СВ 4 20 км 10/3 1000 м
[Sc As trans]
+5.6 +0.5 70 +2 +4 1001.7 984.6
03 19.05 СВ 2 20 км {дождь} 9/6 600 м
[Frnb As op]
+4.9 +3.0 87 +2 +4 1002.4 985.2
06 19.05 Ю 3 20 км {дождь} 8/4 600 м
[Cu med, cong Ci fib]
+10.8 +3.8 62 +9 +13 1001.2 984.4
09 19.05 С 3 20 км 10/10 1000 м
[Sc]
+9.9 -1.7 44 +8 +8 1002.5 985.6 +13.2 0.7
12 19.05 С 3 20 км 9/9 1000 м
[Sc]
+9.5 -2.4 43 +8 +8 1004.9 988.0
15 19.05 С 3 10 км 8/8 1000 м
[Sc]
+5.6 -3.1 53 +3 +3 1006.9 989.7
18 19.05 С 5 10 км 9/9 1000 м
[Sc]
+3.1 -4.4 58 -2 -2 1008.7 991.3
21 19.05 С 3 20 км 1/1 1000 м
[Sc]
+2.7 -5.0 57 -1 +1 1010.5 993.0 +2.6
00 20.05 С 2 20 км ясно +4.3 -5.0 51 +2 +11 опасность
простуды
1011.4 994.0
03 20.05 В 2 20 км 3/3 600 м
[Cu hum]
+6.8 -3.2 49 +5 +14 опасность
простуды
1011.3 994.1
06 20.05 ЮВ 2 20 км ясно +9.7 -4.0 38 +9 +17 1010.3 993.3
09 20.05 С 2 20 км ясно +12.6 -10.9 18 +12 +14 1010.0 993.1 +13.0
12 20.05 С 1 20 км ясно +7.6 -5.5 39 +7 +7 1011.4 994.3
15 20.05 штиль 0 10 км ясно +3.4 -2.6 65 +3 +3 1013.1 995.6
18 20.05 С 1 10 км ясно +1.3 -4.6 65 -0 -0 1014.0 996.4
21 20.05 Ю 1 20 км ясно +2.6 -2.6 69 +1 +4 1015.3 997.7 -0.4
00 21.05 С 3 20 км 3/0
[Ci fib]
+6.7 -4.5 45 +4 +11 1014.8 997.5
03 21.05 С 2 20 км 8/0
[Ci fib]
+9.8 -5.5 34 +9 +20 опасность
простуды
1013.1 996.1
06 21.05 С 2 20 км 8/1 600 м
[Cu med, cong Ci fib]
+11.3 -4.4 33 +11 +17 1011.2 994.2
09 21.05 С 1 20 км 6/3 600 м
[Cu med, cong Ci fib]
+12.7 -2.3 35 +13 +15 1009.8 992.9 +14.5
12 21.05 В 1 20 км 8/0
[Ac und Ci fib]
+13.6 -3.9 29 +14 +14 1009.6 992.8
15 21.05 ЮЗ 2 10 км 6/0
[Ac und Ci fib]
+12.6 -4.1 31 +12 +12 1009.9 993.0
18 21.05 С 1 10 км 8/0
[Ac As]
+4.3 +1.2 80 +3 +3 1009.3 992.0
21 21.05 С 1 20 км 8/0
[Ac As]
+4.7 +0.3 73 +4 +5 1008.2 990.9 +4.2
00 22.05 ЮВ 6 20 км {дождь} 8/3 1000 м
[Cu Sc Ci sp]
+9.6 +0.2 52 +6 +9 1006.1 989.2
03 22.05 ЮВ 5 4000 м слаб. дождь 10/10 600 м
[Frnb]
+8.6 +3.5 70 +5 +5 1003.7 986.8
06 22.05 В 1 4000 м слаб. дождь 10/9 600 м
[Frnb As op]
+7.0 +5.4 90 +6 +6 1000.7 983.7
09 22.05 ЮВ 1 4000 м слаб. дождь 10/0
[As op]
+7.7 +6.2 90 +7 +7 998.5 981.6 +10.0 1
12 22.05 Ю 3 20 км {дождь} 10/0
[As op]
+8.0 +7.1 94 +5 +5 997.8 980.9
15 22.05 Ю 3 4000 м слаб. дождь 10/9 600 м
[Frnb As op]
+6.4 +6.2 99 +3 +3 998.0 981.0
18 22.05 Ю 1 4000 м слаб. дождь 10/9 600 м
[Frnb As op]
+6.6 +6.2 97 +5 +5 998.3 981.3
21 22.05 Ю 2 10 км слаб. дождь 10/9 600 м
[Frnb As op]
+5.7 +5.2 97 +3 +3 998.6 981.6 +5.7 6
00 23.05 штиль 0 10 км слаб. дождь 10/9 600 м
[Frnb As op]
+5.6 +5.1 97 +4 +5 998.2 981.2
03 23.05 В 1 10 км слаб. дождь 10/8 600 м
[Frnb As op]
+6.5 +5.1 91 +5 +6 997.7 980.7
06 23.05 С 1 20 км в посл. час дождь 10/9 600 м
[Frnb As op]
+8.5 +5.2 80 +8 +8 996.7 979.9
09 23.05 штиль 0 20 км 10/3 600 м
[Frnb As op]
+9.2 +4.2 71 +9 +9 996.6 979.8 +9.9 1
12 23.05 штиль 0 20 км 10/0
[As op]
+8.5 +3.9 73 +8 +8 997.4 980.5
15 23.05 Ю 2 10 км 10/0
[As op]
+7.2 +4.4 82 +5 +5 997.9 981.0
18 23.05 ЮЗ 1 10 км 10/0
[Ac und]
+6.9 +3.4 78 +6 +6 998.2 981.2
21 23.05 Ю 2 20 км 10/0
[Ac und]
+6.5 +1.5 70 +4 +5 998.7 981.7 +6.1
00 24.05 З 2 20 км 10/0
[Ac und]
+7.8 +2.0 67 +6 +9 998.8 981.9
03 24.05 ЮВ 3 20 км 9/6 600 м
[Cu med, cong Ac cuf]
+9.0 +1.8 61 +7 +9 1008.6 991.6
06 24.05 В 1 20 км 10/9 600 м
[Cu Sc Ac cuf]
+9.8 +2.0 58 +10 +10 1008.6 991.7
09 24.05 Ю 2 20 км 9/9 1000 м
[Cu Sc]
+11.8 +2.0 51 +11 +11 1008.5 991.7 +12.5
12 24.05 штиль 0 20 км 9/9 1000 м
[Sc]
+9.5 +4.1 69 +9 +9 1009.7 992.7
15 24.05 ЮВ 1 10 км 10/8 1000 м
[Sc Ac cuf]
+9.2 +2.9 65 +9 +9 1009.7 992.7
18 24.05 С 1 10 км 9/3 1000 м
[Sc Ac cuf]
+6.1 +4.0 86 +5 +5 1010.1 992.9
21 24.05 СЗ 1 20 км {дождь} 9/1 1000 м
[Sc Ac As]
+5.6 +3.7 88 +4 +5 1011.0 993.7 +5.3 0.0
00 25.05 штиль 0 20 км {дождь} 8/6 600 м
[Cu Sc Ci fib]
+8.0 +4.8 80 +7 +12 1011.1 994.0
03 25.05 В 4 20 км {ливн. осадки} 9/8 600 м
[Cb calv Ci fib]
+11.8 +2.9 54 +10 +12 1001.0 984.3
06 25.05 С 2 20 км {ливн. осадки} 9/9 600 м
[Cb calv Ci fib]
+13.4 +3.1 50 +13 +14 1000.5 983.9
09 25.05 СЗ 1 20 км 8/6 600 м
[Cb calv Ci fib]
+12.8 +4.5 57 +13 +14 1001.2 984.5 +15.1 0.0
12 25.05 штиль 0 20 км 8/6 600 м
[Cb calv Ci fib]
+11.8 +5.6 66 +11 +11 1002.7 986.0
15 25.05 ЮЗ 1 10 км 8/6 600 м
[Cu med, cong Ci fib]
+9.3 +4.6 72 +9 +9 1004.2 987.3

 

Местоположение метеостанции Охотский Перевоз (Якутия, Россия): широта 61.87 долгота 135.50 высота над уровнем моря 141 м.

В архиве по умолчанию представлена погода в Охотском Перевозе за последнюю неделю. Архивные данные за месяц целиком и за предыдущие месяцы, начиная с января 2011 года, Вы можете получить, выбрав интересующий диапазон дат из раскрывающегося списка и нажав кнопку "Ввод!".


*Определитесь, кто Вы:
робот инопланетянин человек

Внимание! Время в таблицах - всемирное. Для получения местного времени необходимо прибавить поправку, которая равна 9 ч.

Смотрите также архив погоды в соседних городах и на ближайших метеорологических станциях:

Погода в Ытык-Кюёле (Якутия, Россия) (118 км)
Погода в Крест-Хальджае (Якутия, Россия) (120 км)
Погода в Теплом Ключе (Якутия, Россия) (121 км)
Погода в Чурапче (Якутия, Россия) (153 км)
Погода в Усть-Мае (Якутия, Россия) (179 км)
Погода в Амге (Якутия, Россия) (220 км)
Погода в Томпо (Якутия, Россия) (232 км)
Погода в Верхоянском Перевозе (Якутия, Россия) (241 км)
Погода в Восточной (Якутия, Россия) (259 км)
Погода в Югоренке (Якутия, Россия) (260 км)

Пояснения к столбцам:

Ветер - указаны скорость ветра в м/с - средняя за 10 мин, порывы в срок и между сроками (в фигурных скобках) и направление, откуда дует ветер: С - северный, СВ - северо-восточный, В - восточный, ЮВ - юго-восточный, Ю - южный, ЮЗ - юго-западный, З - западный, СЗ - северо-западный.
Видимость - горизонтальная дальность видимости в метрах или километрах. При видимости от 1 до 10 км при отсутствии осадков обычно наблюдается дымка, при ухудшении видимости до 1 км и менее - туман. В сухую погоду видимость может ухудшаться дымом, пылью или мглою.
Явления - указаны атмосферные явления, наблюдавшиеся в срок или в последний час перед сроком; фигурными скобками обозначены явления, наблюдавшиеся между сроками (за 1-3 часа до срока); квадратными скобками обозначены град или гололедные отложения с указанием их диаметра в мм.
Облачность - указаны через наклонную черту общая и нижняя облачность в баллах и высота нижней границы облаков в метрах; квадратными скобками обозначены формы облаков: Ci - перистые, Cs - перисто-слоистые, Cc - перисто-кучевые, Ac - высококучевые, As - высокослоистые, Sc - слоисто-кучевые, Ns - слоисто-дождевые, Cu - кучевые, Cb - кучево-дождевые. Подробнее классификацию облаков см. в Атласе облаков (PDF).
T - Температура воздуха - температура, измеренная на высоте 2 м над землей.
Td - Температура точки росы - температура, при понижении до которой содержащийся в воздухе водяной пар достигнет насыщения.
f - Относительная влажность воздуха - влажноcть воздуха, измеренная на высоте 2 м над землей.
Te - Эффективная температура - температура, которую ощущает одетый по сезону человек в тени. Характеристика душности погоды. При расчете учитывается влияние влажности воздуха и скорости ветра на теплоощущения человека.
Tes - Эффективная температура на солнце - температура, которую ощущает человек, с поправкой на солнечный нагрев. Характеристика знойности погоды. Зависит от высоты солнца над горизонтом, облачности и скорости ветра. Ночью, в пасмурную погоду, а также при ветре 12 м/с и более поправка равна нулю.
P - Атмосферное давление - приведенное к уровню моря атмосферное давление.
Po - Атмосферное давление - измеренное на уровне метеостанции атмосферное давление.
Tmin - Минимальная температура - минимум температуры воздуха на высоте 2 м над землей.
Tmax - Максимальная температура - максимум температуры воздуха на высоте 2 м над землей.
R - Количество осадков - Количество выпавших осадков за период времени, мм. При наведении курсора мыши на число - период времени, за который выпало указанное количество осадков.
R24 - Количество осадков - Количество выпавших осадков за 24 часа, мм.
S - Снежный покров - Высота снежного покрова, см. При наведении курсора мыши на число - состояние снежного покрова и степень покрытия местности в баллах.